ジャック彗星

C/2017 K6 ( Jacques )

English version
Home page
Updated on February 9, 2019

---------------------------------------------------------------------

・ プロフィール

発見日 2017年5月29日
発見光度 17.5等
発見者 Cristovao Jacques (SONEAR Observatory at Oliveira)

・ 写真集

・ 軌道要素

Epoch 2018 Jan. 2.0 TT = JDT 2458120.5
T 2018 Jan. 3.13776 TT                                  MPCW
q   2.0027582            (2000.0)            P               Q
z  +0.0008915      Peri.  303.83888     +0.49565853     -0.22851032
 +/-0.0000012      Node    85.05440     +0.75134608     +0.59675908
e   0.9982146      Incl.   57.25102     -0.43566236     +0.76919545
From 355 observations 2017 May 29-2018 Aug. 24, mean residual 0".5.

・ 星図

・ 光度変化

        m1 = 8.5 + 5 logΔ + 12.5 log r(t - 30)

---------------------------------------------------------------------

軌道要素はM.P.E.C. 2018-S50に掲載されたものです。
星図はステラナビゲータ Ver.10 (アストロアーツ) で作成したものです。
光度グラフはComet for Windowsで作成したものです。

---------------------------------------------------------------------

Copyright(C) Seiichi Yoshida (comet@aerith.net). All rights reserved.